DW8501 Madrid ES current weather conditions

sailwx.info

Wind from 101 at 1 knots gusting 2

Air temperature 7.8° C
Dewpoint 4.9° C

Last reported at 2017-Feb-26 00:55 UTC.
Time now 2017-Feb-26 01:09 UTC

Location: N 40°27' W 003°35'.
View on Google Maps.

See reports from other nearby stations

  
Tides and Currents Weather Stations Pressure Air Temp Water Temp Dewpoint Dewpoint Depression Visibility Wind Speed Wind Dir Waves Ship Positions
date/time (UTC)wind fromknots sea level pressurealtimeterstation pressurevisibilityair tempwater tempwave heightnotes
2017-Feb-26 01:00 098 2 gusting 3 7.2
2017-Feb-26 00:55 101 1 gusting 2 7.8
2017-Feb-26 00:50 104 1 gusting 2 7.8
2017-Feb-26 00:45 097 0 gusting 2 7.8
2017-Feb-26 00:40 090 0 gusting 2 7.8
2017-Feb-26 00:35 090 1 gusting 2 7.8
2017-Feb-26 00:30 7.8
2017-Feb-26 00:25 7.8
2017-Feb-26 00:20 7.8
2017-Feb-26 00:15 7.8
2017-Feb-26 00:10 225 0 gusting 1 7.8
2017-Feb-26 00:05 8.3
2017-Feb-26 00:00 8.3
2017-Feb-25 23:55 8.3
2017-Feb-25 23:50 172 0 gusting 2 8.3
2017-Feb-25 23:45 185 1 gusting 2 8.3
2017-Feb-25 23:40 8.3
2017-Feb-25 23:35 8.3
2017-Feb-25 23:30 8.3
2017-Feb-25 23:25 8.9
2017-Feb-25 23:20 8.9
2017-Feb-25 23:15 9.4
2017-Feb-25 23:10 9.4
2017-Feb-25 23:05 9.4
2017-Feb-25 23:00 9.4
2017-Feb-25 22:55 10.0
2017-Feb-25 22:50 10.0
2017-Feb-25 22:45 10.0
2017-Feb-25 22:40 051 0 gusting 3 10.0
2017-Feb-25 22:35 041 2 gusting 3 10.0
2017-Feb-25 22:30 038 2 gusting 3 10.0
2017-Feb-25 22:25 043 1 gusting 3 10.0
2017-Feb-25 22:20 050 1 gusting 3 10.0
2017-Feb-25 22:15 051 1 gusting 2 10.6
2017-Feb-25 22:10 10.6
2017-Feb-25 22:05 10.6
2017-Feb-25 22:00 10.6
2017-Feb-25 21:55 11.1
2017-Feb-25 21:50 11.1
2017-Feb-25 21:45 220 3 gusting 5 11.1
2017-Feb-25 21:40 221 1 gusting 5 11.1
2017-Feb-25 21:35 221 3 gusting 5 11.1
2017-Feb-25 21:30 220 1 gusting 6 11.1
2017-Feb-25 21:25 229 3 gusting 8 11.1
2017-Feb-25 21:20 222 4 gusting 8 11.7
2017-Feb-25 21:15 230 6 gusting 8 11.7
2017-Feb-25 21:10 298 3 gusting 6 11.7
2017-Feb-25 21:05 272 3 gusting 6 11.7
2017-Feb-25 21:00 225 3 gusting 6 11.7
2017-Feb-25 20:55 218 3 gusting 4 11.7
2017-Feb-25 20:50 217 2 gusting 4 12.2
2017-Feb-25 20:45 218 3 gusting 6 12.2
2017-Feb-25 20:40 228 3 gusting 6 12.8
2017-Feb-25 20:35 229 5 gusting 6 12.8
2017-Feb-25 20:30 227 5 gusting 6 12.8
2017-Feb-25 20:25 228 5 gusting 6 12.8
2017-Feb-25 20:20 225 5 gusting 6 12.8
2017-Feb-25 20:15 214 6 gusting 6 12.8
2017-Feb-25 20:10 202 4 gusting 6 12.8
2017-Feb-25 20:05 211 4 gusting 6 12.8
2017-Feb-25 20:00 216 5 gusting 6 12.2
2017-Feb-25 19:55 206 3 gusting 6 12.2
2017-Feb-25 19:50 199 3 gusting 6 12.8
2017-Feb-25 19:45 191 3 gusting 6 13.3
2017-Feb-25 19:40 182 2 gusting 6 13.3
2017-Feb-25 19:35 183 3 gusting 5 13.9
2017-Feb-25 19:30 191 1 gusting 5 13.9
2017-Feb-25 19:25 216 3 gusting 6 14.4
2017-Feb-25 19:20 230 1 gusting 6 14.4
2017-Feb-25 19:15 226 3 gusting 6 15.0
2017-Feb-25 19:10 215 5 gusting 6 15.0
2017-Feb-25 19:05 214 3 gusting 6 15.0
2017-Feb-25 19:00 225 3 gusting 6 15.0
2017-Feb-25 18:55 227 4 gusting 6 15.0
2017-Feb-25 18:50 229 3 gusting 6 15.6
2017-Feb-25 18:45 227 3 gusting 6 15.6
2017-Feb-25 18:40 237 4 gusting 6 15.6
2017-Feb-25 18:35 238 4 gusting 6 15.6
2017-Feb-25 18:30 231 3 gusting 6 15.6
2017-Feb-25 18:25 230 3 gusting 6 15.6
2017-Feb-25 18:20 231 4 gusting 6 16.1
2017-Feb-25 18:15 231 5 gusting 6 16.1
2017-Feb-25 18:10 220 4 gusting 6 16.1
2017-Feb-25 18:05 220 4 gusting 6 16.1
2017-Feb-25 18:00 228 3 gusting 6 16.1
2017-Feb-25 17:55 228 5 gusting 6 16.7
2017-Feb-25 17:50 225 4 gusting 6 16.7
2017-Feb-25 17:45 225 5 gusting 6 16.7
2017-Feb-25 17:40 225 4 gusting 8 17.2
2017-Feb-25 17:35 225 6 gusting 8 17.2
2017-Feb-25 17:30 239 6 gusting 9 17.2
2017-Feb-25 17:25 243 6 gusting 9 17.8
2017-Feb-25 17:20 235 6 gusting 9 17.8
2017-Feb-25 17:15 251 6 gusting 9 18.3
2017-Feb-25 17:10 305 2 gusting 5 18.3
2017-Feb-25 17:05 293 3 gusting 6 18.3
2017-Feb-25 17:00 245 3 gusting 8 18.3
2017-Feb-25 16:55 255 3 gusting 9 18.3
2017-Feb-25 16:50 294 2 gusting 9 18.3
2017-Feb-25 16:45 264 6 gusting 9 18.3
2017-Feb-25 16:40 243 1 gusting 11 18.3
2017-Feb-25 16:35 247 6 gusting 13 18.3
2017-Feb-25 16:30 243 5 gusting 13 17.8
2017-Feb-25 16:25 250 10 gusting 13 18.3
2017-Feb-25 16:20 245 6 gusting 9 18.3
2017-Feb-25 16:15 240 5 gusting 9 18.3
2017-Feb-25 16:10 256 5 gusting 12 18.3
2017-Feb-25 16:05 253 4 gusting 12 17.8
2017-Feb-25 16:00 253 6 gusting 11 18.3
2017-Feb-25 15:55 256 5 gusting 12 18.3
2017-Feb-25 15:50 243 6 gusting 12 18.3
2017-Feb-25 15:45 247 5 gusting 12 17.8
2017-Feb-25 15:40 266 8 gusting 12 18.3
2017-Feb-25 15:35 281 6 gusting 12 18.3
2017-Feb-25 15:30 266 5 gusting 10 18.3
2017-Feb-25 15:25 250 6 gusting 11 17.8
2017-Feb-25 15:20 240 5 gusting 11 17.8
2017-Feb-25 15:15 250 7 gusting 11 17.8
2017-Feb-25 15:10 241 5 gusting 11 17.8
2017-Feb-25 15:05 229 6 gusting 13 17.8
2017-Feb-25 15:00 251 6 gusting 13 17.8
2017-Feb-25 14:55 252 10 gusting 12 17.8
2017-Feb-25 14:50 238 8 gusting 11 17.8
2017-Feb-25 14:45 263 6 gusting 11 17.8
2017-Feb-25 14:40 274 7 gusting 12 17.8
2017-Feb-25 14:35 257 5 gusting 12 17.2
2017-Feb-25 14:30 260 7 gusting 12 17.2
2017-Feb-25 14:25 245 8 gusting 12 16.7
2017-Feb-25 14:20 228 7 gusting 12 17.2
2017-Feb-25 14:15 241 6 gusting 12 16.7
2017-Feb-25 14:10 236 9 gusting 14 16.7
2017-Feb-25 14:05 230 7 gusting 14 16.7
2017-Feb-25 14:00 236 4 gusting 10 16.7
2017-Feb-25 13:55 228 5 gusting 12 16.7
2017-Feb-25 13:50 223 7 gusting 12 16.7
2017-Feb-25 13:45 229 6 gusting 12 16.7
2017-Feb-25 13:40 237 9 gusting 12 16.7
2017-Feb-25 13:35 258 4 gusting 10 16.7
2017-Feb-25 13:30 254 4 gusting 10 16.1
2017-Feb-25 13:25 233 6 gusting 9 16.7
2017-Feb-25 13:20 254 6 gusting 10 16.1
2017-Feb-25 13:15 260 6 gusting 10 15.6
2017-Feb-25 13:10 264 7 gusting 9 15.6
2017-Feb-25 13:05 267 6 gusting 9 15.6
2017-Feb-25 13:00 264 6 gusting 9 15.6
2017-Feb-25 12:55 262 6 gusting 11 15.6
2017-Feb-25 12:50 251 6 gusting 11 15.0
2017-Feb-25 12:45 242 6 gusting 11 15.6
2017-Feb-25 12:40 252 6 gusting 10 15.0
2017-Feb-25 12:35 244 5 gusting 9 14.4
2017-Feb-25 12:30 246 8 gusting 10 14.4
2017-Feb-25 12:25 257 6 gusting 10 14.4
2017-Feb-25 12:20 221 3 gusting 10 14.4
2017-Feb-25 12:15 220 3 gusting 11 13.9
2017-Feb-25 12:10 231 7 gusting 11 13.9
2017-Feb-25 12:05 243 5 gusting 8 13.9
2017-Feb-25 12:00 257 5 gusting 8 13.3
2017-Feb-25 11:55 244 3 gusting 9 12.8
2017-Feb-25 11:50 242 4 gusting 12 12.8
2017-Feb-25 11:45 267 7 gusting 12 12.8
2017-Feb-25 11:40 270 6 gusting 10 12.8
2017-Feb-25 11:35 200 6 gusting 10 12.8
2017-Feb-25 11:30 188 3 gusting 9 12.8
2017-Feb-25 11:25 210 5 gusting 9 12.2
2017-Feb-25 11:20 219 6 gusting 9 12.2
2017-Feb-25 11:15 225 6 gusting 8 12.2
2017-Feb-25 11:10 256 3 gusting 6 12.8
2017-Feb-25 11:05 228 2 gusting 6 13.3
2017-Feb-25 11:00 182 2 gusting 6 13.3
2017-Feb-25 10:55 177 2 gusting 6 12.8
2017-Feb-25 10:50 169 1 gusting 6 12.8
2017-Feb-25 10:45 191 3 gusting 6 12.2
2017-Feb-25 10:40 224 2 gusting 6 12.2
2017-Feb-25 10:35 229 1 gusting 6 11.7
2017-Feb-25 10:30 11.7
2017-Feb-25 10:25 105 1 gusting 5 10.6
2017-Feb-25 10:20 111 1 gusting 4 10.6
2017-Feb-25 10:15 111 1 gusting 3 10.0
2017-Feb-25 10:10 099 2 gusting 4 10.0
2017-Feb-25 10:05 094 2 gusting 4 10.0
2017-Feb-25 10:00 105 2 gusting 3 10.6
2017-Feb-25 09:55 10.6
2017-Feb-25 09:50 093 1 gusting 3 9.4
2017-Feb-25 09:45 059 2 gusting 4 10.0
2017-Feb-25 09:40 067 0 gusting 4 9.4
2017-Feb-25 09:35 108 1 gusting 2 10.0
2017-Feb-25 09:30 117 1 gusting 2 10.0
2017-Feb-25 09:25 10.0
2017-Feb-25 09:20 108 0 gusting 4 9.4
2017-Feb-25 09:15 8.3
2017-Feb-25 09:10 121 3 gusting 5 8.9
2017-Feb-25 09:05 135 0 gusting 3 8.3
2017-Feb-25 09:00 120 0 gusting 3 8.3
2017-Feb-25 08:55 105 3 gusting 3 8.9
2017-Feb-25 08:50 106 0 gusting 2 8.9
2017-Feb-25 08:45 108 0 gusting 1 8.3
2017-Feb-25 08:40 098 0 gusting 1 7.8
2017-Feb-25 08:35 090 1 gusting 1 8.3
2017-Feb-25 08:30 7.8
2017-Feb-25 08:25 090 0 gusting 1 7.2
2017-Feb-25 08:20 087 0 gusting 2 6.7
2017-Feb-25 08:15 6.7
2017-Feb-25 08:10 111 1 gusting 2 6.7
2017-Feb-25 08:05 092 1 gusting 2 6.1
2017-Feb-25 08:00 078 1 gusting 2 6.7
2017-Feb-25 07:55 5.6
2017-Feb-25 07:50 092 1 gusting 2 5.6
2017-Feb-25 07:45 082 1 gusting 2 5.6
2017-Feb-25 07:40 4.4
2017-Feb-25 07:35 090 1 gusting 3 4.4
2017-Feb-25 07:30 093 1 gusting 3 3.9
2017-Feb-25 07:25 099 3 gusting 3 4.4
2017-Feb-25 07:20 101 2 gusting 3 4.4
2017-Feb-25 07:15 096 0 gusting 1 3.9
2017-Feb-25 07:10 3.3
2017-Feb-25 07:05 2.8
2017-Feb-25 07:00 2.8
2017-Feb-25 06:55 2.8
2017-Feb-25 06:50 106 0 gusting 1 2.8
2017-Feb-25 06:45 101 0 gusting 3 2.8
2017-Feb-25 06:40 096 1 gusting 3 2.8
2017-Feb-25 06:35 092 1 gusting 3 2.8
2017-Feb-25 06:30 090 2 gusting 3 2.8
2017-Feb-25 06:25 3.3
2017-Feb-25 06:20 2.8
2017-Feb-25 06:15 3.3
2017-Feb-25 06:10 3.3
2017-Feb-25 06:05 3.3
2017-Feb-25 06:00 3.3
2017-Feb-25 05:55 3.3
2017-Feb-25 05:50 3.3
2017-Feb-25 05:45 3.3
2017-Feb-25 05:40 3.3
2017-Feb-25 05:35 3.3
2017-Feb-25 05:30 3.3
2017-Feb-25 05:25 3.3
2017-Feb-25 05:20 3.3
2017-Feb-25 05:15 3.3
2017-Feb-25 05:10 3.3
2017-Feb-25 05:05 3.3
2017-Feb-25 05:00 3.3
2017-Feb-25 04:55 3.9
2017-Feb-25 04:50 3.9
2017-Feb-25 04:45 4.4
2017-Feb-25 04:40 4.4
2017-Feb-25 04:35 357 0 gusting 2 4.4
2017-Feb-25 04:30 350 1 gusting 2 4.4
2017-Feb-25 04:25 350 1 gusting 3 4.4
2017-Feb-25 04:20 4.4
2017-Feb-25 04:15 325 0 gusting 3 4.4
2017-Feb-25 04:10 333 0 gusting 3 5.0
2017-Feb-25 04:05 347 1 gusting 3 5.0
2017-Feb-25 04:00 5.0
2017-Feb-25 03:55 051 1 gusting 4 5.0
2017-Feb-25 03:50 050 2 gusting 5 5.0
2017-Feb-25 03:45 053 3 gusting 6 5.0
2017-Feb-25 03:40 057 3 gusting 6 5.6
2017-Feb-25 03:35 060 3 gusting 6 5.6
2017-Feb-25 03:30 059 2 gusting 5 5.6
2017-Feb-25 03:25 047 3 gusting 5 5.6
2017-Feb-25 03:20 022 3 gusting 3 5.6
2017-Feb-25 03:15 342 1 gusting 4 5.6
2017-Feb-25 03:10 316 1 gusting 4 5.6
2017-Feb-25 03:05 327 3 gusting 4 5.6
2017-Feb-25 03:00 339 3 gusting 4 5.6
2017-Feb-25 02:55 342 1 gusting 3 5.6
2017-Feb-25 02:50 351 1 gusting 3 5.6
2017-Feb-25 02:45 352 1 gusting 3 5.6
2017-Feb-25 02:40 003 1 gusting 3 5.6
2017-Feb-25 02:35 002 1 gusting 3 5.6
2017-Feb-25 02:30 353 1 gusting 3 5.6
2017-Feb-25 02:25 5.6
2017-Feb-25 02:20 6.1
2017-Feb-25 02:15 287 1 gusting 2 6.1
2017-Feb-25 02:10 6.1
2017-Feb-25 02:05 047 0 gusting 5 6.7
2017-Feb-25 02:00 045 1 gusting 5 6.7
2017-Feb-25 01:55 047 3 gusting 6 6.7
2017-Feb-25 01:50 049 3 gusting 6 6.7
2017-Feb-25 01:45 044 4 gusting 6 6.7
2017-Feb-25 01:40 044 3 gusting 5 6.7
2017-Feb-25 01:35 056 3 gusting 4 6.7
2017-Feb-25 01:30 061 1 gusting 4 6.7
2017-Feb-25 01:25 054 2 gusting 6 6.7
2017-Feb-25 01:20 050 3 gusting 6 6.7
2017-Feb-25 01:15 050 4 gusting 7 7.2
2017-Feb-25 01:10 050 5 gusting 7 7.2
2017-Feb-25 01:05 053 4 gusting 8 7.2
2017-Feb-25 01:00 050 4 gusting 8 7.2
2017-Feb-25 00:55 047 6 gusting 9 7.2
2017-Feb-25 00:50 050 6 gusting 9 7.2
2017-Feb-25 00:45 062 6 gusting 7 7.2
2017-Feb-25 00:40 071 3 gusting 6 7.2
2017-Feb-25 00:35 066 3 gusting 6 7.8
2017-Feb-25 00:30 060 4 gusting 6 7.8
2017-Feb-25 00:25 052 4 gusting 6 7.8
2017-Feb-25 00:20 046 2 gusting 6 7.8
2017-Feb-25 00:15 041 3 gusting 6 7.8
2017-Feb-25 00:10 043 5 gusting 6 7.8
2017-Feb-25 00:05 046 5 gusting 9 7.8
2017-Feb-25 00:00 048 6 gusting 10 7.8
2017-Feb-24 23:55 044 6 gusting 10 7.8
2017-Feb-24 23:50 042 4 gusting 8 7.8
2017-Feb-24 23:45 044 6 gusting 8 8.3
2017-Feb-24 23:40 057 6 gusting 9 8.3
2017-Feb-24 23:35 073 6 gusting 12 8.3
2017-Feb-24 23:30 066 6 gusting 13 8.3
2017-Feb-24 23:25 066 6 gusting 13 8.3
2017-Feb-24 23:20 064 10 gusting 13 8.9
2017-Feb-24 23:15 059 6 gusting 9 8.9
2017-Feb-24 23:10 075 6 gusting 14 8.9
2017-Feb-24 23:05 089 5 gusting 14 8.9
2017-Feb-24 23:00 083 10 gusting 14 8.9
2017-Feb-24 22:55 065 10 gusting 14 8.9
2017-Feb-24 22:50 071 8 gusting 13 8.9
2017-Feb-24 22:45 092 7 gusting 14 9.4
2017-Feb-24 22:40 084 7 gusting 14 9.4
2017-Feb-24 22:35 080 4 gusting 13 9.4
2017-Feb-24 22:30 079 9 gusting 14 9.4
2017-Feb-24 22:25 067 9 gusting 14 9.4
2017-Feb-24 22:20 065 6 gusting 11 9.4
2017-Feb-24 22:15 072 8 gusting 11 9.4
2017-Feb-24 22:10 081 6 gusting 9 9.4
2017-Feb-24 22:05 076 6 gusting 11 9.4
2017-Feb-24 22:00 069 6 gusting 11 9.4
2017-Feb-24 21:55 064 4 gusting 10 9.4
2017-Feb-24 21:50 072 6 gusting 11 10.0
2017-Feb-24 21:45 077 6 gusting 11 10.0
2017-Feb-24 21:40 079 4 gusting 9 10.0
2017-Feb-24 21:35 073 3 gusting 9 10.0
2017-Feb-24 21:30 072 6 gusting 9 10.0
2017-Feb-24 21:25 081 4 gusting 9 10.0
2017-Feb-24 21:20 087 5 gusting 9 10.6
2017-Feb-24 21:15 081 5 gusting 10 10.6
2017-Feb-24 21:10 054 5 gusting 10 10.6
2017-Feb-24 21:05 053 7 gusting 10 10.6
2017-Feb-24 21:00 073 7 gusting 11 10.6
2017-Feb-24 20:55 068 8 gusting 12 11.1
2017-Feb-24 20:50 067 7 gusting 13 11.1
2017-Feb-24 20:45 081 6 gusting 13 11.1
2017-Feb-24 20:40 084 6 gusting 13 11.7
2017-Feb-24 20:35 068 6 gusting 13 11.7
2017-Feb-24 20:30 055 9 gusting 14 11.7
2017-Feb-24 20:25 050 6 gusting 14 11.7
2017-Feb-24 20:20 047 6 gusting 14 11.7
2017-Feb-24 20:15 052 6 gusting 13 11.7
2017-Feb-24 20:10 045 8 gusting 13 12.2
2017-Feb-24 20:05 012 8 gusting 13 11.7
2017-Feb-24 20:00 038 7 gusting 14 11.7
2017-Feb-24 19:55 059 7 gusting 14 11.7
2017-Feb-24 19:50 049 12 gusting 14 11.7
2017-Feb-24 19:45 046 7 gusting 14 11.7
2017-Feb-24 19:40 050 6 gusting 17 12.2
2017-Feb-24 19:35 053 11 gusting 17 12.2
2017-Feb-24 19:30 055 13 gusting 14 12.2
2017-Feb-24 19:25 045 10 gusting 15 12.2
2017-Feb-24 19:20 037 9 gusting 16 12.8
2017-Feb-24 19:15 042 11 gusting 16 12.8
2017-Feb-24 19:10 172 9 gusting 14 13.3
2017-Feb-24 19:05 131 10 gusting 19 13.3
2017-Feb-24 19:00 048 10 gusting 19 13.3
2017-Feb-24 18:55 042 17 gusting 19 13.9
2017-Feb-24 18:50 050 6 gusting 13 13.9
2017-Feb-24 18:45 057 6 gusting 12 13.9
2017-Feb-24 18:40 051 7 gusting 12 13.9
2017-Feb-24 18:35 039 9 gusting 13 14.4
2017-Feb-24 18:30 050 6 gusting 14 14.4
2017-Feb-24 18:25 059 9 gusting 14 14.4
2017-Feb-24 18:20 056 10 gusting 14 14.4
2017-Feb-24 18:15 056 7 gusting 17 15.0
2017-Feb-24 18:10 046 9 gusting 17 15.0
2017-Feb-24 18:05 047 10 gusting 14 15.0
2017-Feb-24 18:00 051 9 gusting 17 15.6
2017-Feb-24 17:55 044 13 gusting 17 15.6
2017-Feb-24 17:45 065 9 gusting 14 16.1
2017-Feb-24 17:40 062 6 gusting 11 16.1
2017-Feb-24 17:35 046 3 gusting 8 16.1
2017-Feb-24 13:55 335 0 gusting 3 18.3
2017-Feb-24 13:50 246 1 gusting 6 17.8
2017-Feb-24 13:45 261 2 gusting 6 16.7
2017-Feb-24 13:40 250 3 gusting 6 17.2
2017-Feb-24 13:35 250 2 gusting 6 16.7
2017-Feb-24 13:30 255 3 gusting 6 16.7
2017-Feb-24 13:25 257 4 gusting 6 17.8
2017-Feb-24 13:20 266 1 gusting 6 17.2
2017-Feb-24 13:15 300 2 gusting 6 17.2
2017-Feb-24 13:10 327 1 gusting 4 16.1
2017-Feb-24 13:05 343 3 gusting 6 16.1
2017-Feb-24 13:00 024 1 gusting 6 15.6
2017-Feb-24 12:55 104 3 gusting 7 16.1
2017-Feb-24 12:50 108 3 gusting 7 15.6
2017-Feb-24 12:45 113 5 gusting 6 15.6
2017-Feb-24 12:40 100 4 gusting 6 15.6
2017-Feb-24 12:35 091 4 gusting 9 15.0
2017-Feb-24 12:30 091 3 gusting 9 14.4
2017-Feb-24 12:25 078 6 gusting 10 14.4
2017-Feb-24 12:20 066 5 gusting 10 15.0
2017-Feb-24 12:15 059 4 gusting 11 15.0
2017-Feb-24 12:10 077 6 gusting 11 14.4
2017-Feb-24 12:05 098 6 gusting 13 14.4
2017-Feb-24 12:00 077 3 gusting 13 14.4
2017-Feb-24 11:55 067 6 gusting 12 14.4
2017-Feb-24 11:50 070 6 gusting 12 14.4
2017-Feb-24 11:45 076 2 gusting 9 14.4
2017-Feb-24 11:40 077 1 gusting 10 13.9
2017-Feb-24 11:35 071 7 gusting 10 13.9
2017-Feb-24 11:30 084 3 gusting 10 13.3
2017-Feb-24 11:25 081 3 gusting 10 13.3
2017-Feb-24 11:20 045 7 gusting 10 13.3
2017-Feb-24 11:15 047 4 gusting 10 13.3
2017-Feb-24 11:10 059 6 gusting 11 12.8
2017-Feb-24 11:05 062 6 gusting 11 12.8
2017-Feb-24 11:00 075 6 gusting 9 12.8
2017-Feb-24 10:55 077 6 gusting 11 12.2
2017-Feb-24 10:50 063 6 gusting 11 12.2
2017-Feb-24 10:45 047 3 gusting 9 12.2
2017-Feb-24 10:40 046 5 gusting 9 12.2
2017-Feb-24 10:35 066 5 gusting 8 12.2
2017-Feb-24 10:30 068 5 gusting 6 12.2
2017-Feb-24 10:25 048 3 gusting 7 12.2
2017-Feb-24 10:20 057 2 gusting 8 12.2
2017-Feb-24 10:15 060 4 gusting 10 11.7
2017-Feb-24 10:10 051 6 gusting 10 11.7
2017-Feb-24 10:05 045 7 gusting 10 11.7
2017-Feb-24 10:00 043 6 gusting 8 11.1
2017-Feb-24 09:55 041 4 gusting 7 11.1
2017-Feb-24 09:50 040 5 gusting 7 11.1
2017-Feb-24 09:45 036 4 gusting 7 10.6
2017-Feb-24 09:40 040 6 gusting 7 10.6
2017-Feb-24 09:35 046 5 gusting 7 10.6
2017-Feb-24 09:30 049 4 gusting 6 10.6
2017-Feb-24 09:25 045 5 gusting 8 10.6
2017-Feb-24 09:20 049 6 gusting 8 10.6
2017-Feb-24 09:15 059 6 gusting 7 10.6
2017-Feb-24 09:10 073 3 gusting 3 10.6
2017-Feb-24 09:05 089 1 gusting 3 10.6
2017-Feb-24 09:00 090 3 gusting 3 10.6
2017-Feb-24 08:55 090 1 gusting 5 10.6
2017-Feb-24 08:50 099 1 gusting 5 10.6
2017-Feb-24 08:45 098 3 gusting 5 10.6
2017-Feb-24 08:40 050 0 gusting 3 10.6
2017-Feb-24 08:35 011 1 gusting 3 10.6
2017-Feb-24 08:30 10.0
2017-Feb-24 08:25 033 2 gusting 3 10.0
2017-Feb-24 08:20 030 1 gusting 5 10.0
2017-Feb-24 08:15 042 3 gusting 5 9.4
2017-Feb-24 08:10 025 3 gusting 4 9.4
2017-Feb-24 08:05 349 1 gusting 3 9.4
2017-Feb-24 08:00 341 1 gusting 3 9.4
2017-Feb-24 07:55 339 1 gusting 3 8.9
2017-Feb-24 07:50 340 1 gusting 3 8.9
2017-Feb-24 07:45 348 1 gusting 3 8.9
2017-Feb-24 07:40 352 1 gusting 3 8.9
2017-Feb-24 07:35 353 1 gusting 3 8.9
2017-Feb-24 07:30 003 1 gusting 2 8.9
2017-Feb-24 07:25 8.9
2017-Feb-24 07:20 8.9
2017-Feb-24 07:15 8.3
2017-Feb-24 07:10 347 1 gusting 2 8.3
2017-Feb-24 07:05 8.3
2017-Feb-24 07:00 8.3
2017-Feb-24 06:55 8.3
2017-Feb-24 06:50 8.3
2017-Feb-24 06:45 8.3
2017-Feb-24 06:40 8.3
2017-Feb-24 06:35 8.3
2017-Feb-24 06:30 7.8
2017-Feb-24 06:25 8.3
2017-Feb-24 06:20 8.3
2017-Feb-24 06:15 8.3
2017-Feb-24 06:10 190 1 gusting 3 8.3
2017-Feb-24 06:05 191 1 gusting 3 7.8
2017-Feb-24 06:00 178 1 gusting 4 8.3
2017-Feb-24 05:55 171 1 gusting 4 8.3
2017-Feb-24 05:50 198 2 gusting 5 8.3
2017-Feb-24 05:45 195 2 gusting 5 8.3
2017-Feb-24 05:40 176 3 gusting 5 8.3
2017-Feb-24 05:35 190 1 gusting 3 8.3
2017-Feb-24 05:30 216 1 gusting 2 8.3
2017-Feb-24 05:25 196 1 gusting 2 8.9
2017-Feb-24 05:20 8.9
2017-Feb-24 05:15 126 0 gusting 1 8.9
2017-Feb-24 05:10 8.9
2017-Feb-24 05:05 8.9
2017-Feb-24 05:00 8.9
2017-Feb-24 04:55 8.9
2017-Feb-24 04:50 8.9
2017-Feb-24 04:45 097 1 gusting 2 8.9
2017-Feb-24 04:40 8.9
2017-Feb-24 04:35 8.9
2017-Feb-24 04:30 097 3 gusting 4 9.4
2017-Feb-24 04:25 101 1 gusting 3 9.4
2017-Feb-24 04:20 9.4
2017-Feb-24 04:15 061 1 gusting 6 9.4
2017-Feb-24 04:10 057 2 gusting 6 9.4
2017-Feb-24 04:05 058 3 gusting 4 9.4
2017-Feb-24 04:00 047 2 gusting 3 9.4
2017-Feb-24 03:55 028 1 gusting 3 9.4
2017-Feb-24 03:50 005 0 gusting 3 9.4
2017-Feb-24 03:45 004 3 gusting 3 9.4
2017-Feb-24 03:40 024 2 gusting 3 9.4
2017-Feb-24 03:35 021 1 gusting 4 9.4
2017-Feb-24 03:30 359 1 gusting 4 9.4
2017-Feb-24 03:25 349 3 gusting 4 9.4
2017-Feb-24 03:20 354 1 gusting 3 9.4
2017-Feb-24 03:15 357 1 gusting 3 9.4
2017-Feb-24 03:10 354 1 gusting 3 9.4
2017-Feb-24 03:05 9.4
2017-Feb-24 03:00 9.4
2017-Feb-24 02:55 9.4
2017-Feb-24 02:50 9.4
2017-Feb-24 02:45 9.4
2017-Feb-24 02:40 010 0 gusting 1 9.4
2017-Feb-24 02:35 9.4
2017-Feb-24 02:30 192 0 gusting 3 9.4
2017-Feb-24 02:25 192 1 gusting 3 8.9
2017-Feb-24 02:20 181 1 gusting 3 8.9
2017-Feb-24 02:15 173 1 gusting 5 8.9
2017-Feb-24 02:10 181 2 gusting 5 8.9
2017-Feb-24 02:05 192 3 gusting 5 8.9
2017-Feb-24 02:00 207 3 gusting 5 8.9
2017-Feb-24 01:55 218 3 gusting 4 8.9
2017-Feb-24 01:50 198 1 gusting 3 9.4
2017-Feb-24 01:45 177 2 gusting 4 9.4
2017-Feb-24 01:40 168 1 gusting 4 9.4
2017-Feb-24 01:35 149 2 gusting 3 9.4
2017-Feb-24 01:30 142 1 gusting 1 9.4
2017-Feb-24 01:25 152 0 gusting 2 9.4
2017-Feb-24 01:20 10.0
2017-Feb-24 01:15 165 1 gusting 3 10.0
2017-Feb-24 01:10 188 1 gusting 3 10.0
2017-Feb-24 01:05 194 1 gusting 3 10.6
2017-Feb-24 01:00 172 1 gusting 3 10.6